| time (UTC) | temp F | wind direction | speed MPH | gust MPH | rain 1hr in | rain 24hr in | rain mn in | humidity % | barometer mb |
| 20260504040536 | 54 | 0 | 0.0 | 1.0 | 0.00 | 0.00 | 0.00 | 81 | 1012.4 |
| 20260504040113 | 54 | 0 | 0.0 | 2.0 | 0.00 | 0.00 | 0.00 | 81 | 1012.4 |
| 20260504035537 | 54 | 0 | 0.0 | 2.0 | 0.00 | 0.00 | 0.00 | 81 | 1012.4 |
| 20260504035037 | 54 | 257 | 0.0 | 2.0 | 0.00 | 0.00 | 0.00 | 81 | 1012.4 |
| 20260504034548 | 54 | 0 | 0.0 | 1.0 | 0.00 | 0.00 | 0.00 | 81 | 1012.4 |
| 20260504034036 | 54 | 0 | 0.0 | 1.0 | 0.00 | 0.00 | 0.00 | 81 | 1012.3 |
| 20260504033536 | 54 | 0 | 0.0 | 0.0 | 0.00 | 0.00 | 0.00 | 81 | 1012.3 |
| 20260504033048 | 54 | 0 | 0.0 | 0.0 | 0.00 | 0.00 | 0.00 | 81 | 1012.2 |
| 20260504032536 | 54 | 0 | 0.0 | 0.0 | 0.00 | 0.00 | 0.00 | 81 | 1012.4 |
| 20260504032035 | 54 | 0 | 0.0 | 0.0 | 0.00 | 0.00 | 0.00 | 81 | 1012.3 |
| 20260504031556 | 54 | 0 | 0.0 | 0.0 | 0.00 | 0.00 | 0.00 | 81 | 1012.4 |
| 20260504031036 | 54 | 0 | 0.0 | 0.0 | 0.00 | 0.00 | 0.00 | 81 | 1012.4 |
| 20260504030535 | 54 | 0 | 0.0 | 0.0 | 0.00 | 0.00 | 0.00 | 81 | 1012.4 |
| 20260504030049 | 54 | 0 | 0.0 | 0.0 | 0.00 | 0.00 | 0.00 | 81 | 1012.3 |
| 20260504025537 | 54 | 0 | 0.0 | 0.0 | 0.00 | 0.00 | 0.00 | 81 | 1012.3 |
| 20260504025037 | 54 | 0 | 0.0 | 1.0 | 0.00 | 0.00 | 0.00 | 81 | 1012.3 |
| 20260504024545 | 54 | 0 | 0.0 | 1.0 | 0.00 | 0.00 | 0.00 | 82 | 1012.3 |
| 20260504024036 | 54 | 0 | 0.0 | 1.0 | 0.00 | 0.00 | 0.00 | 82 | 1012.3 |
| 20260504023536 | 54 | 0 | 0.0 | 1.0 | 0.00 | 0.00 | 0.00 | 82 | 1012.5 |
| 20260504023043 | 54 | 0 | 0.0 | 1.0 | 0.00 | 0.00 | 0.00 | 82 | 1012.4 |
| 20260504022536 | 54 | 0 | 0.0 | 0.0 | 0.00 | 0.00 | 0.00 | 82 | 1012.4 |
| 20260504022037 | 54 | 0 | 0.0 | 0.0 | 0.00 | 0.00 | 0.00 | 82 | 1012.4 |
| 20260504021548 | 54 | 0 | 0.0 | 1.0 | 0.00 | 0.00 | 0.00 | 82 | 1012.5 |
| 20260504021039 | 54 | 0 | 0.0 | 1.0 | 0.00 | 0.00 | 0.00 | 82 | 1012.4 |
| 20260504020536 | 54 | 0 | 0.0 | 0.0 | 0.00 | 0.00 | 0.00 | 82 | 1012.4 |
| 20260504020100 | 54 | 0 | 0.0 | 0.0 | 0.00 | 0.00 | 0.00 | 82 | 1012.4 |
| 20260504015538 | 54 | 0 | 0.0 | 0.0 | 0.00 | 0.00 | 0.00 | 81 | 1012.4 |
| 20260504015034 | 54 | 0 | 0.0 | 1.0 | 0.00 | 0.00 | 0.00 | 82 | 1012.4 |
| 20260504014550 | 54 | 0 | 0.0 | 1.0 | 0.00 | 0.00 | 0.00 | 82 | 1012.5 |
| 20260504014035 | 54 | 0 | 0.0 | 1.0 | 0.00 | 0.00 | 0.00 | 82 | 1012.5 |
| 20260504013538 | 54 | 0 | 0.0 | 1.0 | 0.00 | 0.00 | 0.00 | 82 | 1012.4 |
| 20260504013046 | 54 | 0 | 0.0 | 1.0 | 0.00 | 0.00 | 0.00 | 82 | 1012.4 |
| 20260504012535 | 54 | 0 | 0.0 | 6.0 | 0.00 | 0.00 | 0.00 | 82 | 1012.4 |
| 20260504012040 | 54 | 0 | 1.0 | 6.0 | 0.00 | 0.00 | 0.00 | 82 | 1012.4 |
| 20260504011550 | 54 | 0 | 1.0 | 4.0 | 0.00 | 0.00 | 0.00 | 82 | 1012.2 |
| 20260504011035 | 54 | 0 | 0.0 | 4.0 | 0.00 | 0.00 | 0.00 | 82 | 1012.3 |
| 20260504010536 | 54 | 297 | 1.0 | 3.0 | 0.00 | 0.00 | 0.00 | 82 | 1012.3 |
| 20260504010048 | 54 | 0 | 0.0 | 6.0 | 0.00 | 0.00 | 0.00 | 82 | 1012.2 |
| 20260504005535 | 54 | 0 | 2.0 | 6.0 | 0.00 | 0.00 | 0.00 | 82 | 1012.2 |
| 20260504005040 | 54 | 290 | 0.0 | 2.0 | 0.00 | 0.00 | 0.00 | 82 | 1012.4 |
| 20260504004550 | 54 | 298 | 0.0 | 3.0 | 0.00 | 0.00 | 0.00 | 82 | 1012.3 |
| 20260504004038 | 54 | 0 | 0.0 | 4.0 | 0.00 | 0.00 | 0.00 | 82 | 1012.3 |
| 20260504003539 | 54 | 324 | 1.0 | 4.0 | 0.00 | 0.00 | 0.00 | 82 | 1012.3 |
| 20260504003046 | 54 | 0 | 1.0 | 4.0 | 0.00 | 0.00 | 0.00 | 82 | 1012.2 |
| 20260504002534 | 54 | 296 | 0.0 | 2.0 | 0.00 | 0.00 | 0.00 | 82 | 1012.2 |
| 20260504002034 | 54 | 301 | 0.0 | 2.0 | 0.00 | 0.00 | 0.00 | 82 | 1012.2 |
| 20260504001553 | 54 | 0 | 0.0 | 3.0 | 0.00 | 0.00 | 0.00 | 82 | 1012.2 |
| 20260504001034 | 54 | 0 | 0.0 | 4.0 | 0.00 | 0.00 | 0.00 | 82 | 1012.4 |
| 20260504000534 | 54 | 0 | 0.0 | 4.0 | 0.00 | 0.00 | 0.00 | 82 | 1012.4 |
| 20260504000050 | 54 | 244 | 1.0 | 4.0 | 0.00 | 0.00 | 0.00 | 82 | 1012.3 |
| 20260503235536 | 54 | 0 | 0.0 | 4.0 | 0.00 | 0.00 | 0.00 | 82 | 1012.3 |
| 20260503235036 | 54 | 0 | 0.0 | 4.0 | 0.00 | 0.00 | 0.00 | 82 | 1012.3 |
| 20260503234612 | 54 | 258 | 0.0 | 4.0 | 0.00 | 0.00 | 0.00 | 82 | 1012.3 |
| 20260503234036 | 54 | 299 | 0.0 | 4.0 | 0.00 | 0.00 | 0.00 | 82 | 1012.3 |
| 20260503233539 | 54 | 0 | 0.0 | 6.0 | 0.00 | 0.00 | 0.00 | 82 | 1012.3 |
| 20260503233050 | 54 | 202 | 0.0 | 6.0 | 0.00 | 0.00 | 0.00 | 82 | 1012.2 |
| 20260503232535 | 54 | 235 | 1.0 | 3.0 | 0.00 | 0.00 | 0.00 | 82 | 1012.2 |
| 20260503232036 | 54 | 270 | 0.0 | 3.0 | 0.00 | 0.00 | 0.00 | 82 | 1012.3 |
| 20260503231608 | 54 | 0 | 0.0 | 9.0 | 0.00 | 0.00 | 0.00 | 82 | 1012.3 |
| 20260503231036 | 54 | 0 | 0.0 | 9.0 | 0.00 | 0.00 | 0.00 | 82 | 1012.3 |
| 20260503230537 | 54 | 267 | 3.0 | 9.0 | 0.00 | 0.00 | 0.00 | 82 | 1012.3 |
| 20260503230051 | 54 | 0 | 1.0 | 6.0 | 0.00 | 0.00 | 0.00 | 82 | 1012.3 |
| 20260503225536 | 54 | 239 | 2.0 | 7.0 | 0.00 | 0.00 | 0.00 | 82 | 1012.2 |
| 20260503225037 | 54 | 246 | 2.0 | 7.0 | 0.00 | 0.00 | 0.00 | 82 | 1012.3 |
| 20260503224549 | 54 | 0 | 2.0 | 7.0 | 0.00 | 0.00 | 0.00 | 82 | 1012.3 |
| 20260503224037 | 54 | 202 | 2.0 | 7.0 | 0.00 | 0.00 | 0.00 | 82 | 1012.3 |
| 20260503223534 | 54 | 260 | 1.0 | 6.0 | 0.00 | 0.00 | 0.00 | 82 | 1012.2 |
| 20260503223049 | 54 | 234 | 0.0 | 6.0 | 0.00 | 0.00 | 0.00 | 82 | 1012.2 |
| 20260503222540 | 54 | 281 | 2.0 | 6.0 | 0.00 | 0.00 | 0.00 | 82 | 1012.2 |
| 20260503222036 | 54 | 263 | 1.0 | 6.0 | 0.00 | 0.00 | 0.00 | 82 | 1012.2 |
| 20260503221613 | 54 | 226 | 0.0 | 8.0 | 0.00 | 0.00 | 0.00 | 82 | 1012.3 |
| 20260503221036 | 55 | 249 | 1.0 | 9.0 | 0.00 | 0.00 | 0.00 | 81 | 1012.1 |
| 20260503220536 | 55 | 267 | 3.0 | 9.0 | 0.00 | 0.00 | 0.00 | 81 | 1012.2 |
| 20260503220047 | 55 | 269 | 1.0 | 6.0 | 0.00 | 0.00 | 0.00 | 81 | 1012.1 |
| 20260503215537 | 55 | 0 | 1.0 | 6.0 | 0.00 | 0.00 | 0.00 | 81 | 1012.1 |
| 20260503215036 | 55 | 261 | 0.0 | 6.0 | 0.00 | 0.00 | 0.00 | 81 | 1012.1 |
| 20260503214550 | 55 | 0 | 0.0 | 6.0 | 0.00 | 0.00 | 0.00 | 81 | 1012.1 |
| 20260503214036 | 55 | 221 | 2.0 | 6.0 | 0.00 | 0.00 | 0.00 | 81 | 1012.0 |
| 20260503213536 | 55 | 254 | 1.0 | 6.0 | 0.00 | 0.00 | 0.00 | 81 | 1012.0 |
| 20260503213046 | 55 | 0 | 1.0 | 7.0 | 0.00 | 0.00 | 0.00 | 81 | 1011.9 |
| 20260503212536 | 55 | 268 | 1.0 | 7.0 | 0.00 | 0.00 | 0.00 | 81 | 1011.9 |
| 20260503212038 | 55 | 273 | 3.0 | 6.0 | 0.00 | 0.00 | 0.00 | 81 | 1011.8 |
| 20260503211622 | 55 | 240 | 2.0 | 7.0 | 0.00 | 0.00 | 0.00 | 81 | 1011.7 |
| 20260503211033 | 55 | 0 | 2.0 | 7.0 | 0.00 | 0.00 | 0.00 | 81 | 1011.7 |
| 20260503210533 | 55 | 198 | 2.0 | 5.0 | 0.00 | 0.00 | 0.00 | 81 | 1011.6 |
| 20260503210043 | 55 | 211 | 1.0 | 7.0 | 0.00 | 0.00 | 0.00 | 81 | 1011.6 |
| 20260503205536 | 55 | 225 | 1.0 | 7.0 | 0.00 | 0.00 | 0.00 | 81 | 1011.5 |
| 20260503205036 | 55 | 266 | 2.0 | 6.0 | 0.00 | 0.00 | 0.00 | 81 | 1011.5 |
| 20260503204545 | 55 | 210 | 1.0 | 8.0 | 0.00 | 0.00 | 0.00 | 81 | 1011.4 |
| 20260503204037 | 55 | 255 | 2.0 | 8.0 | 0.00 | 0.00 | 0.00 | 81 | 1011.4 |
| 20260503203536 | 55 | 252 | 1.0 | 7.0 | 0.00 | 0.00 | 0.00 | 81 | 1011.3 |
| 20260503203055 | 55 | 259 | 3.0 | 7.0 | 0.00 | 0.00 | 0.00 | 81 | 1011.3 |
| 20260503202538 | 55 | 273 | 2.0 | 8.0 | 0.00 | 0.00 | 0.00 | 82 | 1011.3 |
| 20260503202037 | 55 | 271 | 2.0 | 8.0 | 0.00 | 0.00 | 0.00 | 82 | 1011.3 |
| 20260503201551 | 55 | 244 | 2.0 | 6.0 | 0.00 | 0.00 | 0.00 | 82 | 1011.2 |
| 20260503201034 | 55 | 217 | 1.0 | 6.0 | 0.00 | 0.00 | 0.00 | 82 | 1011.2 |
| 20260503200535 | 55 | 261 | 2.0 | 6.0 | 0.00 | 0.00 | 0.00 | 82 | 1011.1 |
| 20260503200054 | 55 | 210 | 2.0 | 7.0 | 0.00 | 0.00 | 0.00 | 82 | 1011.1 |
| 20260503195539 | 55 | 209 | 3.0 | 8.0 | 0.00 | 0.00 | 0.00 | 81 | 1011.0 |
| 20260503195033 | 55 | 226 | 2.0 | 8.0 | 0.00 | 0.00 | 0.00 | 82 | 1010.9 |
| 20260503194555 | 55 | 209 | 2.0 | 7.0 | 0.00 | 0.00 | 0.00 | 82 | 1010.9 |
| 20260503194035 | 55 | 285 | 1.0 | 8.0 | 0.00 | 0.00 | 0.00 | 82 | 1010.9 |
| 20260503193536 | 55 | 239 | 2.0 | 8.0 | 0.00 | 0.00 | 0.00 | 82 | 1010.8 |
| 20260503193045 | 55 | 245 | 2.0 | 8.0 | 0.00 | 0.00 | 0.00 | 81 | 1010.8 |
| 20260503192536 | 56 | 263 | 2.0 | 9.0 | 0.00 | 0.00 | 0.00 | 81 | 1010.8 |
| 20260503192034 | 56 | 223 | 3.0 | 9.0 | 0.00 | 0.00 | 0.00 | 81 | 1010.8 |
| 20260503191544 | 56 | 281 | 3.0 | 8.0 | 0.00 | 0.00 | 0.00 | 81 | 1010.8 |
| 20260503191039 | 56 | 224 | 4.0 | 8.0 | 0.00 | 0.00 | 0.00 | 80 | 1010.8 |
| 20260503190534 | 56 | 281 | 3.0 | 7.0 | 0.00 | 0.00 | 0.00 | 80 | 1010.7 |
| 20260503190049 | 56 | 213 | 3.0 | 6.0 | 0.00 | 0.00 | 0.00 | 80 | 1010.6 |
| 20260503185535 | 56 | 271 | 3.0 | 7.0 | 0.00 | 0.00 | 0.00 | 80 | 1010.6 |
| 20260503185034 | 57 | 211 | 3.0 | 7.0 | 0.00 | 0.00 | 0.00 | 80 | 1010.7 |
| 20260503184547 | 57 | 200 | 3.0 | 6.0 | 0.00 | 0.00 | 0.00 | 80 | 1010.6 |
| 20260503184034 | 57 | 229 | 2.0 | 7.0 | 0.00 | 0.00 | 0.00 | 80 | 1010.4 |
| 20260503183533 | 57 | 211 | 2.0 | 8.0 | 0.00 | 0.00 | 0.00 | 79 | 1010.4 |
| 20260503183050 | 57 | 224 | 4.0 | 8.0 | 0.00 | 0.00 | 0.00 | 78 | 1010.3 |
| 20260503182534 | 58 | 228 | 3.0 | 8.0 | 0.00 | 0.00 | 0.00 | 79 | 1010.2 |
| 20260503182033 | 58 | 233 | 4.0 | 8.0 | 0.00 | 0.00 | 0.00 | 78 | 1010.3 |
| 20260503181547 | 58 | 225 | 1.0 | 6.0 | 0.00 | 0.00 | 0.00 | 78 | 1010.2 |
| 20260503181036 | 58 | 184 | 3.0 | 8.0 | 0.00 | 0.00 | 0.00 | 77 | 1010.2 |
| 20260503180534 | 59 | 229 | 2.0 | 8.0 | 0.00 | 0.00 | 0.00 | 77 | 1010.2 |
| 20260503180057 | 59 | 246 | 3.0 | 9.0 | 0.00 | 0.00 | 0.00 | 76 | 1010.3 |
| 20260503175535 | 59 | 220 | 2.0 | 10.0 | 0.00 | 0.00 | 0.00 | 76 | 1010.2 |
| 20260503175034 | 60 | 246 | 5.0 | 10.0 | 0.00 | 0.00 | 0.00 | 75 | 1010.2 |
| 20260503174543 | 60 | 258 | 3.0 | 8.0 | 0.00 | 0.00 | 0.00 | 76 | 1010.1 |
| 20260503174034 | 60 | 217 | 4.0 | 9.0 | 0.00 | 0.00 | 0.00 | 75 | 1010.1 |
| 20260503173534 | 60 | 245 | 4.0 | 9.0 | 0.00 | 0.00 | 0.00 | 75 | 1010.0 |
| 20260503173047 | 60 | 213 | 4.0 | 10.0 | 0.00 | 0.00 | 0.00 | 75 | 1010.0 |
| 20260503172534 | 60 | 253 | 4.0 | 10.0 | 0.00 | 0.00 | 0.00 | 75 | 1010.0 |
| 20260503172034 | 61 | 252 | 5.0 | 10.0 | 0.00 | 0.00 | 0.00 | 74 | 1010.0 |
| 20260503171548 | 61 | 247 | 5.0 | 10.0 | 0.00 | 0.00 | 0.00 | 74 | 1009.9 |
| 20260503171034 | 61 | 263 | 5.0 | 11.0 | 0.00 | 0.00 | 0.00 | 74 | 1009.9 |
| 20260503170534 | 62 | 274 | 4.0 | 11.0 | 0.00 | 0.00 | 0.00 | 73 | 1009.9 |
| 20260503150534 | 63 | 139 | 3.0 | 9.0 | 0.00 | 0.00 | 0.00 | 69 | 1010.1 |
| 20260503131034 | 63 | 241 | 3.0 | 10.0 | 0.00 | 0.20 | 0.00 | 69 | 1010.4 |
| 20260503130534 | 63 | 196 | 3.0 | 10.0 | 0.00 | 0.20 | 0.00 | 71 | 1010.4 |
| 20260503110535 | 57 | 173 | 3.0 | 8.0 | 0.00 | 0.20 | 0.00 | 80 | 1010.6 |
| 20260503110107 | 57 | 143 | 2.0 | 6.0 | 0.00 | 0.20 | 0.00 | 80 | 1010.7 |
| 20260503081546 | 53 | 0 | 0.0 | 0.0 | 0.00 | 0.20 | 0.00 | 88 | 1010.6 |
| 20260503081035 | 53 | 0 | 0.0 | 2.0 | 0.00 | 0.20 | 0.00 | 89 | 1010.7 |
| 20260503080537 | 53 | 0 | 0.0 | 2.0 | 0.00 | 0.20 | 0.00 | 89 | 1010.6 |
| 20260503072535 | 53 | 0 | 0.0 | 0.0 | 0.00 | 0.20 | 0.00 | 90 | 1010.8 |
| 20260503072034 | 53 | 0 | 0.0 | 1.0 | 0.00 | 0.20 | 0.00 | 90 | 1010.8 |
| 20260503071604 | 53 | 0 | 0.0 | 2.0 | 0.00 | 0.20 | 0.00 | 90 | 1010.8 |
| 20260503071033 | 53 | 0 | 0.0 | 3.0 | 0.00 | 0.20 | 0.00 | 90 | 1010.8 |
| 20260503070533 | 53 | 33 | 0.0 | 3.0 | 0.00 | 0.20 | 0.00 | 90 | 1010.7 |
| 20260503060105 | 52 | 0 | 0.0 | 0.0 | 0.00 | 0.20 | 0.00 | 91 | 1010.3 |
| 20260503055033 | 51 | 0 | 0.0 | 0.0 | 0.00 | 0.20 | 0.00 | 91 | 1010.1 |
| 20260503054558 | 51 | 0 | 0.0 | 0.0 | 0.00 | 0.20 | 0.00 | 90 | 1010.1 |
| 20260503054040 | 51 | 0 | 0.0 | 0.0 | 0.00 | 0.20 | 0.00 | 90 | 1010.0 |
| 20260503053534 | 51 | 0 | 0.0 | 0.0 | 0.00 | 0.20 | 0.00 | 90 | 1009.9 |
| 20260503053048 | 51 | 0 | 0.0 | 0.0 | 0.00 | 0.20 | 0.00 | 91 | 1009.9 |
| 20260503052536 | 51 | 0 | 0.0 | 0.0 | 0.00 | 0.20 | 0.00 | 91 | 1009.9 |
| 20260503052036 | 51 | 0 | 0.0 | 0.0 | 0.00 | 0.20 | 0.00 | 91 | 1009.8 |
| 20260503051552 | 51 | 0 | 0.0 | 0.0 | 0.00 | 0.20 | 0.00 | 91 | 1009.8 |
| 20260503051034 | 51 | 0 | 0.0 | 0.0 | 0.00 | 0.20 | 0.00 | 91 | 1009.8 |
| 20260503050534 | 51 | 0 | 0.0 | 0.0 | 0.00 | 0.20 | 0.00 | 91 | 1009.8 |
| 20260503050050 | 51 | 0 | 0.0 | 0.0 | 0.00 | 0.20 | 0.00 | 91 | 1009.8 |
| 20260503045538 | 51 | 0 | 0.0 | 0.0 | 0.00 | 0.20 | 0.00 | 90 | 1009.8 |
| 20260503045038 | 51 | 0 | 0.0 | 0.0 | 0.00 | 0.20 | 0.00 | 90 | 1009.8 |
| 20260503044549 | 51 | 0 | 0.0 | 0.0 | 0.00 | 0.20 | 0.00 | 90 | 1009.8 |
| 20260503044036 | 51 | 0 | 0.0 | 0.0 | 0.00 | 0.20 | 0.00 | 90 | 1009.9 |
| 20260503043536 | 51 | 0 | 0.0 | 1.0 | 0.00 | 0.20 | 0.00 | 90 | 1009.9 |
| 20260503043046 | 51 | 0 | 0.0 | 2.0 | 0.00 | 0.20 | 0.00 | 90 | 1009.9 |
| 20260503042537 | 51 | 0 | 0.0 | 2.0 | 0.00 | 0.20 | 0.00 | 90 | 1009.9 |
| 20260503042036 | 51 | 0 | 0.0 | 0.0 | 0.00 | 0.20 | 0.00 | 90 | 1009.9 |
| 20260503041547 | 51 | 0 | 0.0 | 0.0 | 0.00 | 0.20 | 0.00 | 90 | 1009.9 |
| 20260503041036 | 50 | 0 | 0.0 | 0.0 | 0.00 | 0.20 | 0.00 | 90 | 1009.9 |